Brindisi, Italy

11:10 AM CET on January 19, 2018 (GMT +0100)
Casale Mil

Weather History for LIBR - April, 2014

Change the Weather History Date:

Sunday, April 27, 2014

  Actual Average Record
Temperature  
Mean Temperature 62 °F -  
Max Temperature 72 °F 71 °F 75 °F (2013)
Min Temperature 51 °F 56 °F 48 °F (1997)
Degree Days  
Heating Degree Days 4    
Growing Degree Days 12 (Base 50)    
Moisture  
Dew Point 56 °F    
Average Humidity 85    
Maximum Humidity 100    
Minimum Humidity 50    
Precipitation  
Precipitation 0.12 in 0.04 in - ()
Sea Level Pressure  
Sea Level Pressure 29.77 in    
Wind  
Wind Speed 5 mph ()    
Max Wind Speed 18 mph    
Max Gust Speed -    
Visibility 5.9 miles    
Events Rain    
Averages and records for this station are not official NWS values.
T = Trace of Precipitation, MM = Missing Value Source: Averaged Metar Reports

Daily Weather History Graph

Daily Weather History Graph

Search for Another Location

Airport or City:

Trip Planner

Search our weather history database for the weather conditions in past years. The results will help you decide how hot, cold, wet, or windy it might be!

Date:

Astronomy

Apr. 27, 2014 Rise Set
Actual Time 5:52 AM CEST 7:39 PM CEST
Civil Twilight 5:23 AM CEST 8:09 PM CEST
Nautical Twilight 4:47 AM CEST 8:44 PM CEST
Astronomical Twilight 4:09 AM CEST 9:23 PM CEST
Moon 4:42 AM CEST (4/27) 5:53 PM CEST (4/27)
Length of Visible Light 14h 45m
Length of Day
13h 47m
Waning Crescent, 4% of the Moon is Illuminated
Apr 27
Waning Crescent
Apr 29
New
May 7
First Quarter
May 14
Full
May 21
Last Quarter

Hourly Weather History & Observations

Time (CEST) Temp. Dew Point Humidity Pressure Visibility Wind Dir Wind Speed Gust Speed Precip Events Conditions
12:15 AM 57.2 °F 53.6 °F 88% 29.83 in 6.2 mi WNW 3.5 mph - N/A   Scattered Clouds
12:45 AM 57.2 °F 53.6 °F 88% 29.83 in 6.2 mi WNW 2.3 mph - N/A   Scattered Clouds
1:15 AM 55.4 °F 51.8 °F 88% 29.83 in 6.2 mi West 1.2 mph - N/A   Partly Cloudy
1:45 AM 55.4 °F 51.8 °F 88% 29.83 in 6.2 mi West 2.3 mph - N/A   Partly Cloudy
2:00 AM 55 °F 52 °F 86% 29.83 in 6 mi West 2.3 mph - -   Scattered Clouds
2:15 AM 55.4 °F 51.8 °F 88% 29.83 in 6.2 mi WSW 3.5 mph - N/A   Partly Cloudy
2:45 AM 53.6 °F 50.0 °F 88% 29.80 in - West 1.2 mph - N/A   Clear
3:15 AM 53.6 °F 50.0 °F 88% 29.80 in - West 1.2 mph - N/A   Clear
3:45 AM 53.6 °F 50.0 °F 88% 29.80 in - West 1.2 mph - N/A   Clear
4:15 AM 51.8 °F 50.0 °F 94% 29.80 in - West 1.2 mph - N/A   Clear
4:45 AM 51.8 °F 50.0 °F 94% 29.80 in - West 1.2 mph - N/A   Clear
5:00 AM 53 °F 49 °F 82% 29.81 in 6 mi West 1.2 mph - -  
5:15 AM 51.8 °F 50.0 °F 94% 29.80 in - West 1.2 mph - N/A   Clear
5:45 AM 51.8 °F 50.0 °F 94% 29.80 in - WSW 3.5 mph - N/A   Clear
6:15 AM 51.8 °F 48.2 °F 88% 29.80 in - SW 5.8 mph - N/A   Clear
6:45 AM 51.8 °F 48.2 °F 88% 29.80 in - West 2.3 mph - N/A   Clear
7:15 AM 51.8 °F 48.2 °F 88% 29.80 in - WSW 2.3 mph - N/A   Clear
7:45 AM 55.4 °F 51.8 °F 88% 29.80 in - West 3.5 mph - N/A   Clear
8:00 AM 55 °F 51 °F 83% 29.81 in 6 mi West 3.5 mph - -   Scattered Clouds
8:15 AM 57.2 °F 53.6 °F 88% 29.80 in - West 1.2 mph - N/A   Clear
8:45 AM 57.2 °F 53.6 °F 88% 29.80 in - West 2.3 mph - N/A   Clear
9:15 AM 60.8 °F 57.2 °F 88% 29.80 in 6.2 mi ENE 3.5 mph - N/A   Partly Cloudy
9:45 AM 62.6 °F 57.2 °F 82% 29.80 in 6.2 mi ENE 2.3 mph - N/A   Partly Cloudy
10:15 AM 62.6 °F 59.0 °F 88% 29.80 in 6.2 mi ENE 4.6 mph - N/A   Partly Cloudy
10:45 AM 62.6 °F 59.0 °F 88% 29.80 in 6.2 mi ENE 4.6 mph - N/A   Partly Cloudy
11:00 AM 63 °F 59 °F 84% 29.81 in 6 mi ENE 4.6 mph - -   Scattered Clouds
11:15 AM 64.4 °F 60.8 °F 88% 29.80 in 6.2 mi East 10.4 mph - N/A   Partly Cloudy
11:45 AM 64.4 °F 60.8 °F 88% 29.80 in 6.2 mi East 9.2 mph - N/A   Partly Cloudy
12:15 PM 64.4 °F 60.8 °F 88% 29.80 in 6.2 mi East 10.4 mph - N/A   Partly Cloudy
12:45 PM 64.4 °F 60.8 °F 88% 29.80 in 6.2 mi East 10.4 mph - N/A   Partly Cloudy
1:15 PM 66.2 °F 59.0 °F 78% 29.77 in 6.2 mi East 13.8 mph - N/A   Partly Cloudy
1:45 PM 66.2 °F 59.0 °F 78% 29.77 in 6.2 mi East 12.7 mph - N/A   Partly Cloudy
2:00 PM 67 °F 60 °F 70% 29.78 in 6 mi East 12.7 mph - -   Scattered Clouds
2:15 PM 66.2 °F 59.0 °F 78% 29.77 in 6.2 mi East 11.5 mph - N/A   Partly Cloudy
2:45 PM 66.2 °F 59.0 °F 78% 29.77 in 6.2 mi ESE 11.5 mph - N/A   Partly Cloudy
3:15 PM 66.2 °F 59.0 °F 78% 29.77 in 6.2 mi ESE 10.4 mph - N/A   Partly Cloudy
3:45 PM 68.0 °F 60.8 °F 78% 29.71 in - ESE 12.7 mph - N/A   Clear
4:15 PM 68.0 °F 60.8 °F 78% 29.71 in - East 11.5 mph - N/A   Clear
4:45 PM 68.0 °F 60.8 °F 78% 29.71 in - South 16.1 mph - N/A   Clear
5:00 PM 68 °F 62 °F 74% 29.71 in 6 mi South 16.1 mph - -   Clear
5:15 PM 71.6 °F 53.6 °F 53% 29.71 in - SSW 16.1 mph - N/A   Clear
5:45 PM 71.6 °F 51.8 °F 50% 29.71 in - SSW 15.0 mph - N/A   Clear
6:15 PM 66.2 °F 57.2 °F 73% 29.71 in - SSW 18.4 mph - N/A   Clear
6:45 PM 66.2 °F 59.0 °F 78% 29.71 in - SSW 16.1 mph - N/A   Clear
7:15 PM 64.4 °F 57.2 °F 77% 29.71 in - SSW 15.0 mph - N/A   Clear
7:45 PM 62.6 °F 60.8 °F 94% 29.71 in - South 13.8 mph - N/A   Clear
8:00 PM 63 °F 62 °F 93% 29.71 in 6 mi South 13.8 mph - -   Scattered Clouds
8:15 PM 62.6 °F 60.8 °F 94% 29.71 in - SSW 12.7 mph - N/A   Clear
8:45 PM 62.6 °F 60.8 °F 94% 29.71 in 6.2 mi South 13.8 mph - N/A Rain Light Rain
9:15 PM 62.6 °F 59.0 °F 88% 29.71 in 6.2 mi South 13.8 mph - N/A   Scattered Clouds
9:45 PM 60.8 °F 60.8 °F 100% 29.71 in 6.2 mi South 13.8 mph - N/A   Scattered Clouds
10:15 PM 60.8 °F 60.8 °F 100% 29.71 in 4.3 mi South 10.4 mph - N/A Rain Light Rain
10:45 PM 60.8 °F 60.8 °F 100% 29.71 in 4.3 mi SSE 8.1 mph - N/A Rain Light Rain
11:00 PM 61 °F 60 °F 95% 29.72 in 4 mi SSE 8.1 mph - - Rain Light Rain
11:15 PM 60.8 °F 59.0 °F 94% 29.71 in 6.2 mi South 8.1 mph - N/A Rain Light Rain
11:45 PM 60.8 °F 59.0 °F 94% 29.71 in 4.3 mi South 9.2 mph - N/A Rain Light Rain